GW4987 Weather Reports


time (UTC)temp
C
wind
direction
speed
KPH
gust
KPH
rain 1hr
cm
rain 24hr
cm
rain mn
cm
humidity
%
barometer
mb
20260505175546 11 141 19.3 22.5 0.00 0.00 0.00 51 1014.3
20260505175010 11 213 9.7 33.8 0.00 0.00 0.00 50 1014.2
20260505174547 12 157 14.5 29.0 0.00 0.00 0.00 47 1014.2
20260505174011 11 153 17.7 33.8 0.00 0.00 0.00 50 1014.3
20260505173547 11 170 19.3 24.1 0.00 0.00 0.00 51 1014.3
20260505173047 10 203 22.5 29.0 0.00 0.00 0.00 55 1014.2
20260505171546 10 135 16.1 25.7 0.00 0.00 0.00 51 1014.2
20260505171046 10 121 14.5 24.1 0.00 0.00 0.00 52 1014.2
20260505170547 12 196 25.7 30.6 0.00 0.00 0.00 49 1014.2
20260505170011 12 137 8.0 20.9 0.00 0.00 0.00 50 1014.1
20260505165503 12 164 20.9 20.9 0.00 0.00 0.00 47 1014.1
20260505165046 11 164 8.0 12.9 0.00 0.00 0.00 52 1014.0
20260505164546 12 175 20.9 27.4 0.00 0.00 0.00 49 1014.1
20260505164047 11 129 20.9 27.4 0.00 0.00 0.00 51 1014.1
20260505163547 12 139 14.5 29.0 0.00 0.00 0.00 48 1014.2
20260505163010 11 163 11.3 14.5 0.00 0.00 0.00 54 1014.1
20260505162547 10 144 8.0 22.5 0.00 0.00 0.00 55 1014.1
20260505162046 10 134 8.0 29.0 0.00 0.00 0.00 56 1014.1
20260505161511 10 191 8.0 24.1 0.00 0.00 0.00 54 1014.4
20260505161010 11 281 6.4 14.5 0.00 0.00 0.00 55 1014.3
20260505160546 11 220 4.8 16.1 0.00 0.00 0.00 56 1014.4
20260505153046 10 128 17.7 32.2 0.00 0.00 0.00 60 1014.1
20260505152511 10 136 20.9 24.1 0.00 0.00 0.00 58 1014.1
20260505152011 10 135 11.3 20.9 0.00 0.00 0.00 57 1014.2
20260505151547 10 126 12.9 16.1 0.00 0.00 0.00 57 1014.1
20260505151010 10 107 6.4 9.7 0.00 0.00 0.00 57 1014.0
20260505150546 10 116 11.3 17.7 0.00 0.00 0.00 59 1014.2
20260505140546 7 255 4.8 17.7 0.00 0.00 0.00 64 1014.0
20260505125010 7 106 4.8 11.3 0.00 0.00 0.00 61 1013.8
20260505124547 7 125 8.0 11.3 0.00 0.00 0.00 61 1013.8
20260505124046 7 79 3.2 11.3 0.00 0.00 0.00 60 1013.6
20260505123527 7 128 9.7 12.9 0.00 0.00 0.00 60 1013.7
20260505123047 7 122 8.0 11.3 0.00 0.00 0.00 60 1013.7
20260505122546 7 98 4.8 14.5 0.00 0.00 0.00 60 1013.5
20260505122046 7 97 3.2 8.0 0.00 0.00 0.00 60 1013.7
20260505121547 7 168 6.4 11.3 0.00 0.00 0.00 60 1013.6
20260505121047 6 165 4.8 11.3 0.00 0.00 0.00 61 1013.7
20260505120510 6 186 3.2 8.0 0.00 0.00 0.00 63 1013.5
20260505120010 6 154 0.0 6.4 0.00 0.00 0.00 62 1013.3
20260505115547 6 164 4.8 11.3 0.00 0.00 0.00 61 1013.6
20260505115011 6 132 6.4 9.7 0.00 0.00 0.00 62 1013.7
20260505114546 6 113 4.8 14.5 0.00 0.00 0.00 62 1013.7
20260505114046 6 186 4.8 8.0 0.00 0.00 0.00 64 1013.8
20260505113547 6 99 4.8 9.7 0.00 0.00 0.00 64 1013.8
20260505113010 6 108 4.8 4.8 0.00 0.00 0.00 66 1013.8
20260505112546 6 160 3.2 6.4 0.00 0.00 0.00 65 1013.8
20260505112046 6 194 3.2 9.7 0.00 0.00 0.00 66 1013.9
20260505111510 6 192 3.2 4.8 0.00 0.00 0.00 65 1013.7
20260505111047 7 89 3.2 4.8 0.00 0.00 0.00 63 1013.7
20260505110546 7 105 8.0 14.5 0.00 0.00 0.00 62 1013.8
20260505102011 6 76 3.2 4.8 0.00 0.00 0.00 68 1014.1
20260505101546 6 43 4.8 8.0 0.00 0.00 0.00 68 1014.1
20260505101011 6 73 4.8 4.8 0.00 0.00 0.00 68 1014.1
20260505100546 6 37 3.2 4.8 0.00 0.00 0.00 68 1014.3
20260505100046 6 353 0.0 3.2 0.00 0.00 0.00 67 1014.2
20260505095547 6 69 4.8 6.4 0.00 0.00 0.00 67 1014.3
20260505095011 6 123 4.8 4.8 0.00 0.00 0.00 66 1014.3
20260505094546 6 31 6.4 8.0 0.00 0.00 0.00 67 1014.4
20260505094047 6 163 3.2 6.4 0.00 0.00 0.00 66 1014.3
20260505092046 6 66 3.2 3.2 0.00 0.00 0.00 66 1014.6
20260505091546 6 138 6.4 6.4 0.00 0.00 0.00 65 1014.7
20260505091047 6 267 3.2 4.8 0.00 0.00 0.00 64 1014.7
20260505090546 7 106 4.8 8.0 0.00 0.00 0.00 63 1014.7
20260505090011 7 105 4.8 11.3 0.00 0.00 0.00 61 1015.1
20260505085547 7 150 9.7 11.3 0.00 0.00 0.00 61 1015.1
20260505085046 7 134 8.0 11.3 0.00 0.00 0.00 61 1015.2
20260505084511 7 123 4.8 19.3 0.00 0.00 0.00 60 1015.2
20260505084010 7 139 14.5 16.1 0.00 0.00 0.00 61 1015.1
20260505083527 7 121 6.4 9.7 0.00 0.00 0.00 62 1015.3
20260505083047 7 208 9.7 14.5 0.00 0.00 0.00 62 1015.3
20260505082546 6 188 8.0 9.7 0.00 0.00 0.00 64 1015.2
20260505082046 7 118 6.4 9.7 0.00 0.00 0.00 64 1015.3
20260505081547 7 115 6.4 14.5 0.00 0.00 0.00 62 1015.3
20260505081010 7 129 4.8 12.9 0.00 0.00 0.00 63 1015.3
20260505080546 7 182 9.7 16.1 0.00 0.00 0.00 64 1015.1
20260505080046 6 109 4.8 8.0 0.00 0.00 0.00 67 1015.2
20260505074010 6 356 4.8 6.4 0.00 0.00 0.00 70 1015.1
20260505073547 7 63 6.4 8.0 0.00 0.00 0.00 69 1015.2
20260505073047 6 50 4.8 4.8 0.00 0.00 0.00 70 1015.3
20260505072546 7 48 4.8 4.8 0.00 0.00 0.00 69 1015.2
20260505072010 7 37 0.0 8.0 0.00 0.00 0.00 68 1015.3
20260505071547 7 87 4.8 6.4 0.00 0.00 0.00 67 1015.3
20260505071046 7 60 3.2 8.0 0.00 0.00 0.00 67 1015.1
20260505070516 7 113 6.4 6.4 0.00 0.00 0.00 69 1015.3
20260505070005 7 89 3.2 4.8 0.00 0.00 0.00 68 1015.3
20260505065547 7 100 0.0 3.2 0.00 0.00 0.00 66 1015.4
20260505065047 7 14 6.4 6.4 0.00 0.00 0.00 67 1015.2
20260505064546 7 63 4.8 8.0 0.00 0.00 0.00 67 1015.2
20260505064046 7 54 0.0 3.2 0.00 0.00 0.00 66 1015.4
20260505063547 8 102 8.0 9.7 0.00 0.00 0.00 65 1015.4
20260505063046 8 127 6.4 8.0 0.00 0.00 0.00 63 1015.7
20260505062546 8 106 8.0 9.7 0.00 0.00 0.00 63 1015.5
20260505062047 8 199 3.2 11.3 0.00 0.00 0.00 61 1015.3
20260505061547 8 144 4.8 8.0 0.00 0.00 0.00 61 1015.2
20260505061012 8 137 9.7 12.9 0.00 0.00 0.00 60 1015.3
20260505060546 8 138 8.0 11.3 0.00 0.00 0.00 60 1015.4
20260505060011 8 46 0.0 6.4 0.00 0.00 0.00 58 1015.6
20260505055546 8 143 8.0 11.3 0.00 0.00 0.00 58 1015.6
20260505055046 8 192 3.2 8.0 0.00 0.00 0.00 56 1015.7
20260505054547 8 68 6.4 6.4 0.00 0.00 0.00 56 1015.6
20260505054012 8 117 3.2 8.0 0.00 0.00 0.00 55 1015.8
20260505053547 8 113 9.7 9.7 0.00 0.00 0.00 54 1015.9
20260505053047 9 187 16.1 20.9 0.00 0.00 0.00 54 1015.8
20260505052511 9 135 11.3 25.7 0.00 0.00 0.00 52 1015.8
20260505052046 9 206 8.0 22.5 0.00 0.00 0.00 52 1015.7
20260505051547 9 130 3.2 16.1 0.00 0.00 0.00 51 1015.5
20260505051011 9 128 6.4 8.0 0.00 0.00 0.00 50 1015.6
20260505050547 9 147 8.0 17.7 0.00 0.00 0.00 49 1015.7
20260505041547 10 154 8.0 22.5 0.00 0.00 0.00 46 1015.7
20260505041047 10 109 6.4 11.3 0.00 0.00 0.00 47 1015.8
20260505035047 10 130 6.4 12.9 0.00 0.00 0.00 47 1015.8
20260505034511 10 177 11.3 32.2 0.00 0.00 0.00 46 1015.6
20260505034011 10 129 11.3 19.3 0.00 0.00 0.00 46 1015.5
20260505033547 10 140 9.7 17.7 0.00 0.00 0.00 47 1015.4
20260505033012 10 106 19.3 20.9 0.00 0.00 0.00 45 1015.4
20260505032547 10 196 8.0 14.5 0.00 0.00 0.00 43 1015.3
20260505032047 10 133 19.3 22.5 0.00 0.00 0.00 42 1015.2
20260505031547 10 257 11.3 20.9 0.00 0.00 0.00 42 1015.0
20260505031011 10 198 4.8 14.5 0.00 0.00 0.00 44 1015.2
20260505030547 10 122 8.0 20.9 0.00 0.00 0.00 43 1015.2
20260505030047 10 141 8.0 25.7 0.00 0.00 0.00 44 1015.1
20260505025546 10 125 8.0 11.3 0.00 0.00 0.00 43 1015.2
20260505025012 11 130 11.3 17.7 0.00 0.00 0.00 43 1015.0
20260505023046 11 162 8.0 22.5 0.00 0.00 0.00 41 1014.7
20260505022547 11 177 4.8 24.1 0.00 0.00 0.00 40 1015.0
20260505022011 11 132 8.0 19.3 0.00 0.00 0.00 40 1014.9
20260505021546 11 219 3.2 17.7 0.00 0.00 0.00 40 1014.9
20260505021047 11 198 17.7 25.7 0.00 0.00 0.00 39 1014.9
20260505015011 12 174 14.5 14.5 0.00 0.00 0.00 38 1014.9
20260505014546 12 192 12.9 29.0 0.00 0.00 0.00 39 1014.6
20260505014047 12 158 11.3 16.1 0.00 0.00 0.00 39 1014.5
20260505013547 12 104 8.0 12.9 0.00 0.00 0.00 38 1014.9
20260505013011 12 211 19.3 20.9 0.00 0.00 0.00 38 1014.7
20260505012547 12 181 17.7 24.1 0.00 0.00 0.00 39 1014.9
20260505012046 12 127 8.0 12.9 0.00 0.00 0.00 40 1014.9
20260505011547 12 189 17.7 20.9 0.00 0.00 0.00 39 1014.7
20260505005547 13 174 17.7 37.0 0.00 0.00 0.00 38 1014.6
20260505005047 13 146 16.1 30.6 0.00 0.00 0.00 37 1014.9
20260505004547 13 205 33.8 37.0 0.00 0.00 0.00 38 1014.6
20260505004011 13 175 16.1 27.4 0.00 0.00 0.00 39 1015.0
20260505003547 13 169 9.7 38.6 0.00 0.00 0.00 38 1015.0
20260505003047 13 190 14.5 20.9 0.00 0.00 0.00 38 1015.0
20260505002511 14 121 6.4 24.1 0.00 0.00 0.00 35 1015.1
20260505002012 15 187 20.9 33.8 0.00 0.00 0.00 34 1015.0
20260505001547 15 138 19.3 24.1 0.00 0.00 0.00 34 1014.9
20260504235546 13 190 14.5 46.7 0.00 0.00 0.00 34 1014.7
20260504235012 15 212 17.7 32.2 0.00 0.00 0.00 32 1014.7
20260504233012 15 217 20.9 35.4 0.00 0.00 0.00 30 1014.9
20260504232546 15 183 8.0 19.3 0.00 0.00 0.00 30 1014.7
20260504232047 15 181 12.9 37.0 0.00 0.00 0.00 31 1015.0
20260504231546 15 194 24.1 40.2 0.00 0.00 0.00 32 1015.1
20260504231046 15 203 11.3 29.0 0.00 0.00 0.00 33 1015.1
20260504230547 15 176 25.7 27.4 0.00 0.00 0.00 32 1015.0
20260504230012 15 194 17.7 32.2 0.00 0.00 0.00 32 1015.0
20260504225546 15 167 11.3 27.4 0.00 0.00 0.00 32 1014.9
20260504225047 14 178 25.7 40.2 0.00 0.00 0.00 33 1015.1
20260504223011 16 173 9.7 24.1 0.00 0.00 0.00 30 1015.5
20260504222547 15 232 12.9 24.1 0.00 0.00 0.00 30 1015.2
20260504222046 15 186 17.7 20.9 0.00 0.00 0.00 30 1015.3
20260504221517 15 160 22.5 51.5 0.00 0.00 0.00 31 1015.4
20260504221011 15 180 16.1 33.8 0.00 0.00 0.00 32 1015.5
20260504220547 15 147 11.3 41.8 0.00 0.00 0.00 32 1015.4
20260504220016 16 135 11.3 40.2 0.00 0.00 0.00 32 1015.4
20260504215547 16 181 20.9 32.2 0.00 0.00 0.00 33 1015.4
20260504215012 16 150 16.1 37.0 0.00 0.00 0.00 32 1015.4
20260504214515 15 201 24.1 32.2 0.00 0.00 0.00 34 1015.5
20260504214047 16 159 16.1 43.5 0.00 0.00 0.00 31 1015.6
20260504213547 15 143 14.5 35.4 0.00 0.00 0.00 28 1015.6
20260504213014 15 190 20.9 32.2 0.00 0.00 0.00 32 1015.5
20260504212547 16 117 4.8 30.6 0.00 0.00 0.00 32 1015.6
20260504212012 16 209 12.9 24.1 0.00 0.00 0.00 31 1015.7
20260504211514 15 214 22.5 54.7 0.00 0.00 0.00 32 1015.8
20260504211047 15 178 17.7 38.6 0.00 0.00 0.00 36 1015.9
20260504210512 15 165 17.7 43.5 0.00 0.00 0.00 42 1015.6
20260504210011 15 187 24.1 35.4 0.00 0.00 0.00 40 1015.6
20260504205547 15 198 33.8 61.2 0.00 0.00 0.00 37 1015.7
20260504205012 15 172 25.7 35.4 0.00 0.00 0.00 38 1015.9
20260504204510 15 217 29.0 35.4 0.00 0.00 0.00 41 1015.9
20260504204047 15 209 33.8 38.6 0.00 0.00 0.00 38 1015.9
20260504203547 15 195 32.2 40.2 0.00 0.00 0.00 39 1015.8
20260504203009 15 143 25.7 38.6 0.00 0.00 0.00 43 1015.6
20260504202546 16 176 16.1 24.1 0.00 0.00 0.00 41 1015.5
20260504202047 15 216 24.1 33.8 0.00 0.00 0.00 42 1015.6
20260504201507 15 182 22.5 43.5 0.00 0.00 0.00 43 1015.8
20260504201012 16 186 24.1 35.4 0.00 0.00 0.00 41 1015.7
20260504200547 15 186 20.9 45.1 0.00 0.00 0.00 49 1015.7
20260504200006 15 107 24.1 30.6 0.00 0.00 0.00 43 1015.9
20260504195546 15 192 12.9 22.5 0.00 0.00 0.00 43 1015.9
20260504195047 14 125 14.5 53.1 0.00 0.00 0.00 49 1015.9
20260504193004 15 192 22.5 33.8 0.00 0.00 0.00 52 1015.9
20260504192512 15 113 8.0 32.2 0.00 0.00 0.00 49 1015.9
20260504192012 15 122 12.9 29.0 0.00 0.00 0.00 47 1015.7
20260504191502 15 139 37.0 48.3 0.00 0.00 0.00 44 1015.6
20260504191012 15 137 22.5 38.6 0.00 0.00 0.00 46 1015.9
20260504190547 15 152 40.2 41.8 0.00 0.00 0.00 44 1015.9
20260504190002 15 131 11.3 38.6 0.00 0.00 0.00 46 1016.2
20260504185546 14 168 24.1 45.1 0.00 0.00 0.00 47 1016.3
20260504185011 15 157 16.1 41.8 0.00 0.00 0.00 43 1016.1
20260504184549 15 140 24.1 38.6 0.00 0.00 0.00 45 1016.2
20260504184047 14 173 17.7 46.7 0.00 0.00 0.00 48 1016.4
20260504183547 14 218 35.4 43.5 0.00 0.00 0.00 43 1016.2
20260504183011 15 132 17.7 29.0 0.00 0.00 0.00 46 1016.1
20260504182547 14 107 11.3 33.8 0.00 0.00 0.00 48 1016.1
20260504182047 15 161 14.5 25.7 0.00 0.00 0.00 45 1015.9
20260504181547 14 190 17.7 32.2 0.00 0.00 0.00 48 1015.9